SCP
0 0 0 0 0 0 -0 -0 -0 -0 -0 -0 -0 -0 -0 -0 -0 -0 -0 -0 -0 -0 -0 -0 -0 -0 -0 -0 -0 -0 -0 -0 -0 -0 -0 -0 -0 -0 -0 -0 -0 -0 -0
0 0 0 0 0 0 0 0 -0 -0 -0 -0 -0 -0 -0 -0 -0 -0 -0 -0 -0 -0 -0 -0 -0 -0 -0 -0 -0 -0 -0 -0 -0 -0 -0 -0 -0 -0 -0 -0 -0 -0 -0
0 0 0 0 0 0 0 0 0 -0 -0 -0 -0 -0 -0 -0 -0 -0 -0 -0 -0 -0 -0 -0 -0 -0 -0 -0 -0 -0 -0 -0 -0 -0 -0 0 -0 -0 -0 -0 -0 -0 -0
0 0 0 0 0 0 0 0 0 0 0 -0 -0 -0 -0 -0 -0 -0 -0 -0 -0 -0 -0 -0 -0 -0 -0 -0 -0 -0 -0 -0 -0 -0 -0 -0 -0 -0 -0 -0 -0 -0 -0
0 0 0 0 -0 -0 0 0 0 0 0 0 -0 -0 -0 -0 -0 -0 -0 -0 -0 -0 -0 -0 -0 -0 -0 -0 -0 -0 -0 -0 -0 -0 -0 -0 -0 -0 -0 -0 -0 -0 -0
0 0 0 -0 -0 -0 -0 -0 0 0 0 -0 -0 -0 -0 -0 -0 -0 -0 -0 -0 -0 -0 -0 -0 -0 -0 -0 -0 -0 -0 -0 -0 -0 -0 -0 -0 -0 -0 -0 -0 -0 -0
-0 0 -0 -0 -0 -0 -0 -0 -0 -0 -0 -0 -0 -0 -0 -0 -0 -0 -0 -0 -0 -0 -0 -0 -0 -0 -0 -0 -0 -0 -0 -0 -0 -0 -0 -0 0 -0 -0 -0 -0 -0 -0
-0 0 0 -0 -0 -0 -0 -0 -0 -0 -0 -0 -0 -0 -0 -0 -0 -0 -0 -0 -0 -0 -0 -0 -0 -0 -0 -0 -0 -0 -0 -0 -0 -0 -0 0 -0 -0 -0 -0 -0 -0 -0
-0 -0 0 -0 -0 -0 -0 -0 -0 -0 -0 -0 -0 -0 -0 -0 -0 -0 -0 -0 -0 -0 -0 -0 -0 -0 -0 -0 -0 -0 -0 0 0 0 0 0 0 0 -0 0 0 0 0
-0 -0 0 0 0 0 -0 -0 -0 -0 -0 -0 -0 -0 -0 -0 -0 -0 -0 -0 -0 -0 -0 -0 -0 -0 -0 -0 -0 0 0 0 0 0 0 0 0 0 0 0 0 0 0
-0 -0 0 0 0 0 0 -0 -0 -0 -0 -0 -0 -0 -0 -0 -0 -0 0 -0 -0 -0 -0 -0 -0 -0 -0 -0 -0 -0 0 0 0 0 0 0 0 0 0 0 0 0 0
-0 -0 -0 0 0 0 0 -0 -0 -0 -0 -0 -0 -0 0 0 0 0 -0 0 -0 -0 -0 -0 0 0 0 0 0 0 0 0 0 0 0 0 0 0 0 0 0 0 0
-0 -0 -0 0 0 0 0 0 0 0 0 0 -0 0 0 0 0 0 0 0 0 0 0 0 0 0 0 0 0 0 0 0 0 0 0 0 0 0 0 0 0 0 0
-0 -0 -0 -0 0 0 0 0 0 0 0 0 0 -0 0 0 0 0 0 0 0 0 0 0 0 0 0 0 0 0 0 0 0 0 0 0 0 0 0 0 0 0 0
-0 -0 -0 -0 -0 -0 -0 0 0 0 0 0 0 0 0 0 0 0 0 0 0 0 0 0 0 0 0 0 0 0 0 0 0 0 0 0 0 0 0 0 0 0 0
-0 -0 -0 -0 -0 -0 -0 -0 0 0 0 0 0 0 0 0 0 0 0 0 0 0 0 0 0 0 0 0 0 0 0 0 0 0 0 0 0 0 0 0 0 0 0
0 -0 -0 -0 -0 -0 -0 -0 0 0 0 0 0 -0 0 0 0 0 0 0 0 0 0 0 0 0 0 0 0 0 0 0 0 0 0 0 0 0 0 0 0 0 0
0 0 -0 -0 -0 -0 -0 0 0 0 0 0 0 0 -0 0 0 0 0 0 0 0 0 0 0 0 0 0 0 0 0 0 0 0 0 0 0 0 0 0 0 0 0
0 0 0 -0 -0 -0 0 0 0 0 0 0 0 0 0 0 0 0 0 0 0 0 0 0 0 0 0 0 0 0 0 0 0 0 0 0 0 0 0 0 0 0 0
0 0 0 0 0 0 0 0 0 0 0 0 0 0 0 0 0 0 0 0 0 0 0 0 0 0 0 0 0 0 0 0 0 0 0 0 0 0 0 0 0 0 0
0 0 0 0 0 0 0 0 0 0 0 0 0 0 0 0 0 0 0 0 0 0 0 0 0 0 0 0 0 0 0 0 0 0 0 0 0 0 0 0 0 0 0
0 0 0 0 0 0 0 0 0 0 0 0 0 0 0 0 0 0 0 0 0 0 0 0 0 0 0 0 0 0 0 0 0 0 0 0 0 0 0 0 0 0 0
0 0 0 0 0 0 0 0 0 0 0 0 0 0 0 0 0 0 0 0 0 0 0 0 0 0 0 0 0 0 0 0 0 0 0 0 0 0 0 0 0 0 0
0 0 0 0 0 0 0 0 0 0 0 0 0 0 0 0 0 0 0 0 0 0 0 0 0 0 0 0 0 0 0 0 0 0 0 0 0 0 0 0 0 0 0
0 0 0 0 0 0 0 0 0 0 0 0 0 0 0 0 0 0 0 0 0 0 0 0 0 0 0 0 0 0 0 0 0 0 0 0 0 0 0 0 0 0 0
0 0 0 0 0 0 0 0 0 0 0 0 0 0 0 0 0 0 0 0 0 0 0 0 0 0 0 0 0 0 0 0 0 0 0 0 0 0 0 0 0 0 0
Wind_Speed_500mb
41 33 28 22 22 20 19 18 18 21 27 20 18 22 25 30 27 30 32 26 29 31 29 28 27 25 25 28 32 38 39 39 44 48 46 46 44 46 48 47 50 51 49
44 34 29 23 21 20 22 20 19 21 27 23 19 21 21 26 29 33 32 38 38 31 33 34 30 30 30 29 28 30 34 37 40 44 47 50 48 44 45 41 39 38 37
41 35 29 25 21 21 21 21 21 22 25 23 16 18 20 27 30 34 35 41 37 28 34 36 33 32 31 28 26 26 27 27 28 28 34 41 36 31 32 34 35 41 43
35 36 31 27 22 20 20 21 20 21 22 23 17 16 20 26 32 31 32 36 34 34 33 35 35 35 33 30 29 27 25 22 18 17 27 32 28 24 25 27 33 32 33
36 34 33 28 24 21 20 19 19 19 20 24 22 15 19 24 29 25 24 32 32 32 33 35 35 36 33 34 35 34 32 31 30 32 36 31 27 23 29 29 28 26 26
37 35 33 28 24 21 21 19 18 17 17 18 23 15 16 23 25 23 25 27 29 30 32 30 34 33 33 35 35 34 33 33 32 35 36 31 31 27 28 29 26 19 18
39 35 32 28 25 22 21 18 16 15 15 16 19 19 12 15 20 17 20 21 26 23 24 25 29 29 32 33 33 34 31 29 29 31 30 25 22 15 17 18 16 16 24
36 35 33 29 26 23 22 19 16 15 14 15 18 17 11 8 15 13 13 15 15 19 22 24 24 24 24 27 27 29 26 23 23 25 23 24 18 17 14 14 13 29 33
34 34 33 31 29 25 23 20 17 15 13 13 15 16 13 5 9 15 9 12 12 14 17 21 22 21 21 20 20 19 16 14 13 15 18 14 7 9 9 16 24 30 34
36 35 35 34 31 28 26 22 18 15 13 13 13 14 10 3 5 10 7 10 11 12 15 19 19 18 17 16 13 10 9 7 8 9 12 7 2 5 16 21 27 29 32
39 39 39 38 35 32 29 25 22 19 16 13 12 11 8 5 3 4 4 7 8 9 12 17 17 15 12 10 7 5 6 9 9 10 14 13 19 14 16 24 25 28 30
47 45 45 42 39 37 34 30 26 22 20 17 15 13 11 9 7 4 2 5 6 8 11 15 15 14 11 8 6 6 7 7 8 10 11 8 17 15 20 20 28 31 25
47 46 48 45 42 40 38 35 32 28 24 21 19 16 14 12 9 7 5 7 7 7 10 13 12 11 9 7 6 6 3 3 7 9 7 12 17 13 21 21 23 26 24
47 45 45 47 46 44 42 42 37 34 30 27 24 20 17 13 11 9 7 7 8 9 9 10 9 7 5 4 5 4 2 2 9 2 6 6 7 17 18 16 19 20 22
44 42 43 45 44 46 47 46 44 41 36 32 29 25 21 16 14 13 12 11 11 12 12 11 9 6 4 4 5 4 3 0 6 1 4 5 5 12 17 16 18 17 18
45 46 44 44 42 38 39 43 45 44 41 40 36 31 26 21 19 17 15 14 14 16 16 15 12 9 7 7 8 9 10 9 4 5 6 8 6 6 10 18 16 18 16
46 47 51 48 47 45 42 40 37 38 42 43 43 38 34 28 25 24 22 21 18 20 21 21 18 15 13 13 14 15 15 15 12 12 14 14 12 12 12 13 13 15 17
53 54 54 53 54 53 50 47 42 36 37 40 42 41 42 37 31 31 29 27 27 27 27 27 24 23 21 20 20 21 23 23 23 22 23 23 20 19 22 17 16 16 17
53 58 62 62 61 59 58 56 52 47 40 40 40 41 35 41 40 36 35 34 34 36 35 34 33 33 31 30 29 33 36 32 32 32 32 33 31 29 31 29 26 21 20
54 59 63 66 67 65 64 65 62 61 56 49 45 45 46 42 41 44 41 43 44 44 44 43 41 41 39 37 40 40 42 42 43 41 43 43 42 39 38 39 37 34 29
54 60 67 69 70 73 75 75 75 72 68 61 55 51 53 52 47 50 52 51 52 51 52 53 53 50 50 49 47 48 51 53 54 54 53 52 53 51 50 49 48 45 39
52 61 68 73 73 74 77 76 76 73 72 69 61 58 59 60 54 63 62 59 62 59 57 61 61 63 60 58 59 56 50 62 67 66 64 65 65 63 62 58 58 55 51
36 42 52 73 72 73 73 74 74 70 70 75 71 68 65 60 62 65 65 69 68 69 63 66 66 70 75 69 69 62 29 52 52 58 65 70 74 74 70 69 67 66 64
36 43 43 50 65 67 70 74 76 74 73 73 71 67 61 61 57 59 60 71 76 80 76 73 75 81 85 88 81 81 85 73 44 45 55 61 70 78 73 78 74 75 75
17 22 28 32 47 55 60 67 71 70 69 62 59 62 60 57 54 48 62 59 70 82 84 87 79 76 88 98 98 93 93 95 94 85 67 63 67 70 72 77 80 81 81
6 5 12 19 28 42 49 55 62 68 66 57 60 58 58 56 50 47 51 53 57 60 68 78 85 89 89 97 102 111 105 102 96 100 101 94 95 82 78 82 81 83 83
Wind_Direction_500mb
164 156 152 146 135 127 116 109 101 104 109 107 90 83 78 74 83 90 95 103 101 85 94 101 105 105 107 108 110 104 97 93 95 92 91 93 93 93 94 94 93 90 89
162 156 150 155 136 125 115 114 110 106 104 95 91 83 76 78 84 96 96 92 91 92 87 98 101 106 110 111 112 111 103 99 99 101 100 97 91 95 92 88 89 87 85
168 161 155 150 141 127 118 114 112 110 115 113 105 85 76 80 87 94 94 95 98 92 86 93 97 103 105 111 115 112 113 117 115 115 107 95 93 91 90 84 89 94 95
172 169 162 152 144 133 124 118 115 114 120 125 112 93 82 83 91 100 99 100 101 94 92 86 92 96 101 104 103 107 112 116 117 109 99 102 108 104 107 114 107 104 100
169 168 161 156 150 141 133 124 115 109 114 121 122 107 87 89 88 93 86 93 102 99 89 90 86 90 95 98 99 96 94 97 104 106 99 105 104 100 112 111 114 111 106
167 165 164 160 156 149 141 130 118 113 111 113 125 118 98 94 89 87 85 95 100 101 96 93 92 90 95 93 96 94 94 97 95 98 102 101 100 105 112 109 104 118 115
168 169 169 166 164 158 151 141 130 121 114 114 125 128 111 94 94 86 85 98 114 106 104 94 100 100 101 97 98 95 95 96 95 100 100 93 99 117 89 114 109 104 102
176 174 174 173 171 167 162 154 145 135 126 124 128 135 135 103 86 96 84 99 113 110 100 96 94 104 94 94 97 96 100 100 99 95 89 93 86 82 98 98 105 102 102
182 184 182 181 179 177 172 167 160 150 140 136 133 134 146 123 75 86 87 110 119 112 103 103 105 106 99 99 98 96 95 96 97 98 100 101 92 95 93 105 109 108 109
189 193 193 190 190 187 183 179 174 164 158 150 148 150 159 155 8 49 57 114 120 114 107 111 109 110 108 109 105 83 80 71 88 101 103 122 146 357 105 112 111 112 109
195 199 202 201 199 197 195 192 188 183 177 174 172 173 181 206 279 352 41 120 123 122 117 116 117 112 104 103 103 95 83 98 93 98 97 84 79 115 128 115 114 114 110
201 202 206 208 207 206 204 202 202 199 194 192 193 198 202 214 227 246 223 180 143 147 135 132 130 126 119 114 107 87 93 93 109 91 83 85 96 111 119 121 123 115 117
205 207 208 211 213 214 214 212 211 211 209 208 207 211 217 225 232 231 219 196 161 165 148 141 135 122 107 102 101 102 73 81 129 81 68 100 115 112 129 123 113 113 108
210 213 214 214 218 219 220 222 220 219 218 218 219 221 227 236 240 230 215 203 180 177 168 153 145 132 124 124 129 128 45 156 173 62 33 21 32 123 127 115 121 120 132
215 215 213 213 218 223 223 228 227 223 223 225 226 227 229 232 234 227 219 210 201 197 186 186 176 175 174 175 179 192 277 111 163 277 345 4 346 142 139 134 128 130 132
221 221 218 218 220 223 225 232 234 234 228 228 230 231 231 230 227 224 224 219 215 208 204 202 207 215 223 219 215 231 259 263 223 265 284 306 306 248 185 152 154 148 149
229 227 227 226 226 228 233 236 236 240 240 238 231 232 232 232 232 225 226 226 225 221 217 218 222 229 233 237 235 247 256 268 265 270 265 261 268 262 250 199 185 184 171
235 235 233 232 233 234 236 239 241 242 241 243 242 238 233 231 233 231 232 235 236 234 231 230 233 236 234 237 250 259 260 258 255 260 262 260 260 261 248 256 235 222 206
238 238 238 237 238 239 240 242 244 246 243 244 242 239 240 234 238 240 240 243 249 248 244 243 243 244 245 239 236 245 249 248 246 252 255 255 256 255 250 250 253 250 231
243 242 240 240 240 241 242 243 242 244 244 242 241 239 239 237 238 242 243 244 245 245 251 251 254 256 250 249 250 252 252 256 251 248 249 249 249 253 251 249 249 251 255
242 240 240 238 237 236 236 236 239 238 243 245 242 241 240 241 240 244 246 240 243 249 251 251 248 249 253 251 247 251 250 254 254 257 251 254 248 251 250 250 249 253 252
245 244 241 239 235 235 237 238 240 244 245 251 251 247 244 240 245 247 252 252 248 243 245 252 252 250 250 250 246 249 250 256 256 257 257 256 258 249 253 251 252 251 254
242 242 245 235 235 234 236 238 238 241 242 249 252 252 250 245 244 246 251 253 255 256 247 252 254 256 250 246 248 241 227 245 258 258 253 256 254 254 251 253 251 251 253
242 244 240 234 232 232 233 236 235 233 233 243 245 256 257 256 255 249 258 257 258 253 253 256 255 252 251 248 240 250 246 250 251 265 257 253 252 253 253 251 255 253 252
236 240 234 233 227 230 233 236 239 234 238 238 242 248 255 259 257 258 268 263 263 259 258 254 257 263 262 254 252 253 247 248 251 251 256 256 257 258 250 255 257 256 251
101 184 215 223 222 224 228 233 238 241 238 233 239 241 248 255 259 263 257 279 265 270 272 273 262 260 262 260 257 255 253 259 259 256 255 263 260 267 260 258 256 257 257
Wind_Speed_850mb
41 33 28 22 22 20 19 18 18 21 27 20 18 22 25 30 27 30 32 26 29 31 29 28 27 25 25 28 32 38 39 39 44 48 46 46 44 46 48 47 50 51 49
44 34 29 23 21 20 22 20 19 21 27 23 19 21 21 26 29 33 32 38 38 31 33 34 30 30 30 29 28 30 34 37 40 44 47 50 48 44 45 41 39 38 37
41 35 29 25 21 21 21 21 21 22 25 23 16 18 20 27 30 34 35 41 37 28 34 36 33 32 31 28 26 26 27 27 28 28 34 41 36 31 32 34 35 41 43
35 36 31 27 22 20 20 21 20 21 22 23 17 16 20 26 32 31 32 36 34 34 33 35 35 35 33 30 29 27 25 22 18 17 27 32 28 24 25 27 33 32 33
36 34 33 28 24 21 20 19 19 19 20 24 22 15 19 24 29 25 24 32 32 32 33 35 35 36 33 34 35 34 32 31 30 32 36 31 27 23 29 29 28 26 26
37 35 33 28 24 21 21 19 18 17 17 18 23 15 16 23 25 23 25 27 29 30 32 30 34 33 33 35 35 34 33 33 32 35 36 31 31 27 28 29 26 19 18
39 35 32 28 25 22 21 18 16 15 15 16 19 19 12 15 20 17 20 21 26 23 24 25 29 29 32 33 33 34 31 29 29 31 30 25 22 15 17 18 16 16 24
36 35 33 29 26 23 22 19 16 15 14 15 18 17 11 8 15 13 13 15 15 19 22 24 24 24 24 27 27 29 26 23 23 25 23 24 18 17 14 14 13 29 33
34 34 33 31 29 25 23 20 17 15 13 13 15 16 13 5 9 15 9 12 12 14 17 21 22 21 21 20 20 19 16 14 13 15 18 14 7 9 9 16 24 30 34
36 35 35 34 31 28 26 22 18 15 13 13 13 14 10 3 5 10 7 10 11 12 15 19 19 18 17 16 13 10 9 7 8 9 12 7 2 5 16 21 27 29 32
39 39 39 38 35 32 29 25 22 19 16 13 12 11 8 5 3 4 4 7 8 9 12 17 17 15 12 10 7 5 6 9 9 10 14 13 19 14 16 24 25 28 30
47 45 45 42 39 37 34 30 26 22 20 17 15 13 11 9 7 4 2 5 6 8 11 15 15 14 11 8 6 6 7 7 8 10 11 8 17 15 20 20 28 31 25
47 46 48 45 42 40 38 35 32 28 24 21 19 16 14 12 9 7 5 7 7 7 10 13 12 11 9 7 6 6 3 3 7 9 7 12 17 13 21 21 23 26 24
47 45 45 47 46 44 42 42 37 34 30 27 24 20 17 13 11 9 7 7 8 9 9 10 9 7 5 4 5 4 2 2 9 2 6 6 7 17 18 16 19 20 22
44 42 43 45 44 46 47 46 44 41 36 32 29 25 21 16 14 13 12 11 11 12 12 11 9 6 4 4 5 4 3 0 6 1 4 5 5 12 17 16 18 17 18
45 46 44 44 42 38 39 43 45 44 41 40 36 31 26 21 19 17 15 14 14 16 16 15 12 9 7 7 8 9 10 9 4 5 6 8 6 6 10 18 16 18 16
46 47 51 48 47 45 42 40 37 38 42 43 43 38 34 28 25 24 22 21 18 20 21 21 18 15 13 13 14 15 15 15 12 12 14 14 12 12 12 13 13 15 17
53 54 54 53 54 53 50 47 42 36 37 40 42 41 42 37 31 31 29 27 27 27 27 27 24 23 21 20 20 21 23 23 23 22 23 23 20 19 22 17 16 16 17
53 58 62 62 61 59 58 56 52 47 40 40 40 41 35 41 40 36 35 34 34 36 35 34 33 33 31 30 29 33 36 32 32 32 32 33 31 29 31 29 26 21 20
54 59 63 66 67 65 64 65 62 61 56 49 45 45 46 42 41 44 41 43 44 44 44 43 41 41 39 37 40 40 42 42 43 41 43 43 42 39 38 39 37 34 29
54 60 67 69 70 73 75 75 75 72 68 61 55 51 53 52 47 50 52 51 52 51 52 53 53 50 50 49 47 48 51 53 54 54 53 52 53 51 50 49 48 45 39
52 61 68 73 73 74 77 76 76 73 72 69 61 58 59 60 54 63 62 59 62 59 57 61 61 63 60 58 59 56 50 62 67 66 64 65 65 63 62 58 58 55 51
36 42 52 73 72 73 73 74 74 70 70 75 71 68 65 60 62 65 65 69 68 69 63 66 66 70 75 69 69 62 29 52 52 58 65 70 74 74 70 69 67 66 64
36 43 43 50 65 67 70 74 76 74 73 73 71 67 61 61 57 59 60 71 76 80 76 73 75 81 85 88 81 81 85 73 44 45 55 61 70 78 73 78 74 75 75
17 22 28 32 47 55 60 67 71 70 69 62 59 62 60 57 54 48 62 59 70 82 84 87 79 76 88 98 98 93 93 95 94 85 67 63 67 70 72 77 80 81 81
6 5 12 19 28 42 49 55 62 68 66 57 60 58 58 56 50 47 51 53 57 60 68 78 85 89 89 97 102 111 105 102 96 100 101 94 95 82 78 82 81 83 83
Wind_Direction_850mb
164 156 152 146 135 127 116 109 101 104 109 107 90 83 78 74 83 90 95 103 101 85 94 101 105 105 107 108 110 104 97 93 95 92 91 93 93 93 94 94 93 90 89
162 156 150 155 136 125 115 114 110 106 104 95 91 83 76 78 84 96 96 92 91 92 87 98 101 106 110 111 112 111 103 99 99 101 100 97 91 95 92 88 89 87 85
168 161 155 150 141 127 118 114 112 110 115 113 105 85 76 80 87 94 94 95 98 92 86 93 97 103 105 111 115 112 113 117 115 115 107 95 93 91 90 84 89 94 95
172 169 162 152 144 133 124 118 115 114 120 125 112 93 82 83 91 100 99 100 101 94 92 86 92 96 101 104 103 107 112 116 117 109 99 102 108 104 107 114 107 104 100
169 168 161 156 150 141 133 124 115 109 114 121 122 107 87 89 88 93 86 93 102 99 89 90 86 90 95 98 99 96 94 97 104 106 99 105 104 100 112 111 114 111 106
167 165 164 160 156 149 141 130 118 113 111 113 125 118 98 94 89 87 85 95 100 101 96 93 92 90 95 93 96 94 94 97 95 98 102 101 100 105 112 109 104 118 115
168 169 169 166 164 158 151 141 130 121 114 114 125 128 111 94 94 86 85 98 114 106 104 94 100 100 101 97 98 95 95 96 95 100 100 93 99 117 89 114 109 104 102
176 174 174 173 171 167 162 154 145 135 126 124 128 135 135 103 86 96 84 99 113 110 100 96 94 104 94 94 97 96 100 100 99 95 89 93 86 82 98 98 105 102 102
182 184 182 181 179 177 172 167 160 150 140 136 133 134 146 123 75 86 87 110 119 112 103 103 105 106 99 99 98 96 95 96 97 98 100 101 92 95 93 105 109 108 109
189 193 193 190 190 187 183 179 174 164 158 150 148 150 159 155 8 49 57 114 120 114 107 111 109 110 108 109 105 83 80 71 88 101 103 122 146 357 105 112 111 112 109
195 199 202 201 199 197 195 192 188 183 177 174 172 173 181 206 279 352 41 120 123 122 117 116 117 112 104 103 103 95 83 98 93 98 97 84 79 115 128 115 114 114 110
201 202 206 208 207 206 204 202 202 199 194 192 193 198 202 214 227 246 223 180 143 147 135 132 130 126 119 114 107 87 93 93 109 91 83 85 96 111 119 121 123 115 117
205 207 208 211 213 214 214 212 211 211 209 208 207 211 217 225 232 231 219 196 161 165 148 141 135 122 107 102 101 102 73 81 129 81 68 100 115 112 129 123 113 113 108
210 213 214 214 218 219 220 222 220 219 218 218 219 221 227 236 240 230 215 203 180 177 168 153 145 132 124 124 129 128 45 156 173 62 33 21 32 123 127 115 121 120 132
215 215 213 213 218 223 223 228 227 223 223 225 226 227 229 232 234 227 219 210 201 197 186 186 176 175 174 175 179 192 277 111 163 277 345 4 346 142 139 134 128 130 132
221 221 218 218 220 223 225 232 234 234 228 228 230 231 231 230 227 224 224 219 215 208 204 202 207 215 223 219 215 231 259 263 223 265 284 306 306 248 185 152 154 148 149
229 227 227 226 226 228 233 236 236 240 240 238 231 232 232 232 232 225 226 226 225 221 217 218 222 229 233 237 235 247 256 268 265 270 265 261 268 262 250 199 185 184 171
235 235 233 232 233 234 236 239 241 242 241 243 242 238 233 231 233 231 232 235 236 234 231 230 233 236 234 237 250 259 260 258 255 260 262 260 260 261 248 256 235 222 206
238 238 238 237 238 239 240 242 244 246 243 244 242 239 240 234 238 240 240 243 249 248 244 243 243 244 245 239 236 245 249 248 246 252 255 255 256 255 250 250 253 250 231
243 242 240 240 240 241 242 243 242 244 244 242 241 239 239 237 238 242 243 244 245 245 251 251 254 256 250 249 250 252 252 256 251 248 249 249 249 253 251 249 249 251 255
242 240 240 238 237 236 236 236 239 238 243 245 242 241 240 241 240 244 246 240 243 249 251 251 248 249 253 251 247 251 250 254 254 257 251 254 248 251 250 250 249 253 252
245 244 241 239 235 235 237 238 240 244 245 251 251 247 244 240 245 247 252 252 248 243 245 252 252 250 250 250 246 249 250 256 256 257 257 256 258 249 253 251 252 251 254
242 242 245 235 235 234 236 238 238 241 242 249 252 252 250 245 244 246 251 253 255 256 247 252 254 256 250 246 248 241 227 245 258 258 253 256 254 254 251 253 251 251 253
242 244 240 234 232 232 233 236 235 233 233 243 245 256 257 256 255 249 258 257 258 253 253 256 255 252 251 248 240 250 246 250 251 265 257 253 252 253 253 251 255 253 252
236 240 234 233 227 230 233 236 239 234 238 238 242 248 255 259 257 258 268 263 263 259 258 254 257 263 262 254 252 253 247 248 251 251 256 256 257 258 250 255 257 256 251
101 184 215 223 222 224 228 233 238 241 238 233 239 241 248 255 259 263 257 279 265 270 272 273 262 260 262 260 257 255 253 259 259 256 255 263 260 267 260 258 256 257 257